CW7283 Weather Reports


Display with metric or nautical units.
time (UTC)temp
F
wind
direction
speed
MPH
gust
MPH
rain 1hr
in
rain 24hr
in
rain mn
in
humidity
%
barometer
mb
20260504050348 46 346 0.0 0.0 0.00 0.00 0.00 66 1007.1
20260504044844 48 319 0.0 0.0 0.00 0.00 0.00 63 1006.9
20260504043333 49 198 0.0 0.0 0.00 0.00 0.00 62 1007.0
20260504041852 50 198 0.0 0.0 0.00 0.00 0.00 60 1007.1
20260504040327 50 198 0.0 0.0 0.00 0.00 0.00 60 1007.1
20260504034825 51 219 0.0 0.0 0.00 0.00 0.00 59 1007.1
20260504033345 52 203 0.0 0.0 0.00 0.00 0.00 56 1007.1
20260504031838 54 173 0.0 2.0 0.00 0.00 0.00 53 1007.1
20260504030329 55 221 0.0 2.0 0.00 0.00 0.00 52 1007.1
20260504024852 55 217 0.0 2.0 0.00 0.00 0.00 52 1007.1
20260504023349 56 229 0.0 2.0 0.00 0.00 0.00 50 1007.0
20260504021900 59 215 0.0 2.0 0.00 0.00 0.00 47 1007.0
20260504020332 61 227 0.0 0.0 0.00 0.00 0.00 42 1007.1
20260504014841 63 227 0.0 0.0 0.00 0.00 0.00 41 1007.1
20260504013336 64 301 0.0 2.0 0.00 0.00 0.00 39 1007.1
20260504011825 65 326 0.0 2.0 0.00 0.00 0.00 36 1007.3
20260504010329 65 31 0.0 2.0 0.00 0.00 0.00 34 1007.6
20260504004858 65 360 1.0 5.0 0.00 0.00 0.00 35 1007.7
20260504003326 66 19 0.0 3.0 0.00 0.00 0.00 33 1007.7
20260504001826 68 355 3.0 6.0 0.00 0.00 0.00 31 1007.9
20260504000412 70 323 0.0 2.0 0.00 0.00 0.00 30 1008.2
20260503234849 70 5 0.0 2.0 0.00 0.00 0.00 30 1008.3
20260503233352 70 22 0.0 2.0 0.00 0.00 0.00 29 1008.3
20260503231838 70 12 0.0 3.0 0.00 0.00 0.00 31 1008.4
20260503230334 69 332 1.0 10.0 0.00 0.00 0.00 32 1008.5
20260503224831 69 20 0.0 5.0 0.00 0.00 0.00 33 1008.6
20260503223345 69 263 1.0 5.0 0.00 0.00 0.00 33 1008.9
20260503221842 69 334 1.0 6.0 0.00 0.00 0.00 36 1009.0
20260503220403 68 350 0.0 9.0 0.00 0.00 0.00 36 1009.4
20260503214848 68 29 2.0 6.0 0.00 0.00 0.00 36 1009.5
20260503213357 69 342 1.0 5.0 0.00 0.00 0.00 37 1009.9
20260503211822 69 278 1.0 8.0 0.00 0.00 0.00 36 1010.1
20260503210329 68 333 2.0 9.0 0.00 0.00 0.00 37 1010.5
20260503204835 68 348 2.0 7.0 0.00 0.00 0.00 37 1010.7
20260503203356 68 84 1.0 6.0 0.00 0.00 0.00 38 1010.9
20260503201821 67 275 1.0 6.0 0.00 0.00 0.00 36 1011.2
20260503200345 67 37 2.0 7.0 0.00 0.00 0.00 36 1011.2
20260503194843 67 296 1.0 7.0 0.00 0.00 0.00 38 1011.3
20260503193332 65 288 1.0 6.0 0.00 0.00 0.00 39 1011.7
20260503191838 67 242 1.0 5.0 0.00 0.00 0.00 39 1011.8
20260503190330 67 296 3.0 6.0 0.00 0.00 0.00 39 1012.0
20260503184838 66 321 0.0 6.0 0.00 0.00 0.00 40 1012.2
20260503183338 65 226 2.0 7.0 0.00 0.00 0.00 40 1012.4
20260503181851 65 17 1.0 4.0 0.00 0.00 0.00 43 1012.6
20260503180340 63 51 1.0 3.0 0.00 0.00 0.00 44 1013.0
20260503174917 62 93 1.0 4.0 0.00 0.00 0.00 46 1013.1
20260503173345 61 200 1.0 5.0 0.00 0.00 0.00 49 1013.3
20260503171903 59 65 1.0 4.0 0.00 0.00 0.00 51 1013.4
20260503170328 58 234 1.0 4.0 0.00 0.00 0.00 55 1013.5
20260503150331 50 258 0.0 1.0 0.00 0.00 0.00 66 1014.4
20260503130346 43 153 0.0 0.0 0.00 0.00 0.00 73 1014.6
20260503110350 40 196 0.0 0.0 0.00 0.00 0.00 80 1015.4
20260503090331 44 232 0.0 0.0 0.00 0.00 0.00 75 1015.9
20260503080336 43 321 0.0 0.0 0.00 0.00 0.00 74 1016.1
20260503071829 45 256 0.0 0.0 0.00 0.00 0.00 69 1015.5
20260503070349 45 256 0.0 0.0 0.00 0.00 0.00 69 1015.5